Location: Hemaruka
(51.7801°N, 111.0917°W)
Time: 10:38:44
(UTC+00:00)

NOAA 15 - Pass Details

Date: 17 December 2023
Orbit: 797 x 810 km, 98.6° (Epoch: 02 March)

Event Time Altitude Azimuth Distance (km) Brightness Sun altitude
Rises 00:51:49 0° 130° (SE) 3,314 7.5 -14.0°
Reaches altitude 10° 00:54:23 10° 120° (ESE) 2,385 6.7 -14.3°
Maximum altitude 00:58:54 30° 60° (ENE) 1,409 5.3 -15.0°
Drops below altitude 10° 01:03:27 10° 1° (N) 2,391 6.9 -15.7°
Sets 01:06:01 0° 351° (N) 3,323 7.7 -16.0°
